Vertical_Velocity
-2 -4 1 0 -4 0 -2 -2 -2 -1 -1 -1 -3 -2 -3 -3 -1 -2 -1 -5 3 -1 -0 -2 3 5 -2 -3 4 6 1 -1 -14 2 -5 -9 1 29 6 -7 4 8 11 22 9
-2 -2 -1 -0 -1 -1 -2 -1 -2 -2 -2 -2 -2 -1 -2 -3 -5 1 -1 1 4 1 0 -3 1 1 -2 -2 -0 1 -0 -9 1 -1 -5 -3 3 -14 5 10 -10 3 3 7 19
-2 -1 -1 -1 -2 1 -2 -1 -3 -1 -2 -3 -2 0 -2 -2 -5 -1 0 1 -1 4 3 2 2 1 1 3 -5 -2 -9 1 -4 -2 3 -2 -4 7 -0 2 -4 -8 8 4 7
0 -2 -5 1 -2 -2 -2 -3 -2 -1 -1 -1 -3 -1 -2 -1 -6 2 -0 4 3 -0 -0 1 1 1 2 1 3 -2 -3 1 -2 -2 2 1 5 -15 9 -4 -1 -6 0 13 2
-1 0 -2 -1 0 -1 -5 -1 -1 -2 -1 -2 -2 -1 -0 -4 8 -2 -0 -0 -0 -0 -0 -1 1 3 -4 -1 6 2 -9 7 3 -5 -2 4 -6 -8 -16 4 -3 3 -1 -1 12
-4 2 -4 -0 0 -2 -4 -5 -2 1 -1 -2 -3 -2 -1 -10 -3 -1 -0 3 -0 1 2 1 7 11 -2 -3 6 -2 10 2 1 -2 7 2 -16 6 9 -14 -7 4 -6 5 -6
-2 2 0 2 1 1 -3 -5 -2 -1 1 -1 -3 -2 -4 14 1 -6 1 5 0 1 1 4 -0 0 2 -5 -2 1 -7 -5 -10 -5 -1 -3 -15 -11 4 -14 -17 -7 -6 -12 -6
0 1 2 -2 -1 4 -3 -3 3 -2 1 -2 -0 -3 -16 6 -1 -3 -2 -1 5 1 5 7 5 -3 -2 -6 -4 1 6 -3 -4 6 2 22 -35 -2 12 8 -6 -8 -8 -1 6
3 3 6 -1 -2 -1 4 -4 -1 -2 -2 1 -0 -4 -7 -3 0 1 -3 0 0 2 -1 5 8 -5 1 3 -2 -6 -8 -3 -10 8 -7 20 -17 -9 -0 -1 -0 -3 -3 -4 -11
2 0 1 6 -0 -6 1 1 -6 1 -0 4 -3 -5 3 1 1 3 2 2 2 2 2 1 -0 -8 8 2 -17 -7 -1 -6 2 -11 -3 0 -12 -9 -2 5 -1 -2 -7 3 0
-1 5 -1 7 -1 1 -2 8 -0 -8 -4 1 1 7 -1 -6 -1 6 7 -0 -2 -2 3 2 -3 -10 6 3 1 3 2 -2 -6 17 3 3 -21 -0 -6 -9 -11 -8 -11 -2 -6
-7 2 3 1 -3 -4 2 -2 -2 3 -1 11 0 -9 2 2 0 1 2 4 -1 -5 1 2 -21 2 -2 2 6 5 -2 -13 -4 -14 14 -2 -22 -2 -3 -2 -12 -4 -1 3 5
-1 3 -3 -0 -2 -1 3 -2 1 6 -1 2 4 -8 14 1 3 1 1 3 3 1 -2 -6 -10 1 5 1 6 2 3 -4 -3 -6 4 2 -44 -10 0 -6 1 2 25 -6 -7
4 -1 -1 -3 3 -1 1 -1 10 6 1 -1 -7 1 -5 2 -3 3 -1 2 -1 -8 1 -2 -2 -1 11 2 8 8 -6 8 0 3 -5 18 -30 24 -12 -8 18 20 5 -12 -13
-2 -2 -1 2 4 -6 4 7 5 1 2 6 2 5 5 -5 3 -3 -2 -2 -3 -6 5 -7 -1 6 -1 -1 4 -5 14 4 -5 6 1 6 8 -12 0 -12 -12 1 5 7 -9
5 2 -4 9 7 4 1 2 10 4 -10 -1 -1 -3 3 -2 -1 5 6 4 5 4 9 -9 5 0 -6 -0 -1 6 2 3 -0 2 5 -9 14 -5 -2 -9 1 -13 10 -1 5
4 -2 9 -11 6 10 2 -0 7 4 10 10 -6 -5 6 4 13 4 6 -3 12 8 -0 0 -3 -2 9 2 8 6 5 -4 -5 0 -8 2 0 -11 5 5 -13 -18 -2 7 -32
5 1 -2 -8 10 8 11 3 2 2 17 9 5 0 0 7 11 10 8 -0 -3 3 -7 -3 -13 -5 -0 10 2 2 5 -6 -3 -1 -6 -4 -5 -7 -1 -1 5 -14 13 -7 -15
-3 -1 3 10 -3 6 7 -2 7 2 -3 5 7 2 4 0 -2 5 1 1 4 -4 -5 -2 -2 -2 6 5 9 -0 2 -2 7 5 7 -4 5 -3 -18 -3 -11 -6 9 -16 -16
-3 3 -4 3 -0 9 5 4 0 2 0 8 0 5 -2 4 2 1 7 6 1 -1 -4 3 -3 -8 -13 2 19 11 15 9 2 -2 -0 -2 3 -4 2 -5 -6 -5 8 15 15
6 8 7 5 -2 2 3 2 -5 -3 -7 4 3 -4 0 -3 -1 -4 3 2 2 -2 -5 -4 0 -7 -5 7 -2 -12 -4 1 10 10 -1 -0 -6 -1 -2 -6 -2 4 -4 1 3
-1 -4 -1 6 0 4 10 7 -5 3 2 -2 -1 -0 1 -2 1 -3 2 -4 -1 1 -5 -4 -2 -3 -1 -21 1 14 2 4 5 -4 -0 9 -29 -10 11 -6 -1 -1 3 6 5
-4 4 5 3 -3 1 -0 1 0 -2 -3 -2 -1 2 -1 -3 -3 1 1 10 1 -18 -9 -8 2 -6 -25 -8 3 13 5 -0 5 8 -2 5 -8 -5 -3 -7 0 -0 -1 4 2
3 0 2 -0 4 1 -0 1 -1 -0 -1 -3 -1 -0 -2 -1 -2 -1 -2 2 -0 -1 0 -4 -1 -0 -2 -8 -1 -0 -3 4 5 6 -4 -3 -12 6 3 4 -0 -9 -5 0 4
3 -2 -3 -3 2 0 -2 0 -2 -4 -1 0 -0 -1 -1 -2 -4 -3 -2 -4 -2 1 1 -1 0 1 -5 -6 1 -1 -1 -3 2 -3 17 -11 1 -8 25 4 -3 2 2 -2 -1
0 -6 1 2 1 2 5 6 -2 -3 -3 -1 -0 -0 -3 -1 -4 -7 -4 0 -3 -4 3 -1 -4 -3 -20 1 1 -4 -6 2 2 -12 5 -14 15 4 -24 13 -1 -1 5 0 -1
-0 1 -2 -2 -1 0 1 0 3 -2 1 -1 -3 -4 -5 -5 -1 -2 0 -2 2 2 2 5 1 1 -17 -2 -1 -8 -5 -3 -2 5 -4 7 -1 8 3 -12 -1 -1 4 0 -3
Height
3117 3116 3115 3115 3114 3114 3113 3111 3110 3109 3107 3106 3104 3102 3099 3097 3097 3096 3095 3094 3092 3090 3091 3091 3092 3092 3092 3095 3095 3096 3090 3084 3089 3091 3090 3097 3097 3100 3100 3099 3101 3102 3101 3101 3101
3110 3110 3109 3108 3108 3107 3106 3106 3104 3102 3101 3099 3097 3095 3092 3091 3090 3090 3087 3086 3085 3084 3085 3086 3087 3085 3086 3090 3088 3088 3082 3081 3088 3090 3088 3090 3091 3092 3092 3092 3094 3097 3097 3098 3097
3102 3102 3102 3102 3101 3100 3100 3100 3099 3097 3094 3093 3091 3089 3086 3084 3084 3081 3079 3080 3081 3080 3080 3081 3081 3080 3080 3082 3084 3081 3075 3082 3083 3086 3086 3085 3086 3089 3085 3086 3091 3091 3092 3092 3094
3094 3094 3094 3094 3093 3093 3093 3093 3093 3091 3089 3086 3084 3083 3079 3079 3083 3077 3078 3077 3077 3077 3077 3076 3076 3076 3077 3076 3080 3075 3077 3080 3080 3082 3081 3081 3083 3080 3080 3081 3084 3085 3085 3085 3086
3085 3085 3085 3085 3085 3085 3085 3085 3085 3085 3083 3080 3077 3076 3073 3073 3076 3070 3072 3072 3071 3071 3071 3071 3072 3072 3072 3075 3075 3072 3074 3076 3077 3076 3076 3078 3075 3071 3070 3073 3075 3077 3078 3077 3079
3076 3076 3076 3076 3076 3076 3076 3077 3077 3077 3076 3073 3070 3068 3066 3068 3063 3066 3065 3066 3066 3067 3067 3068 3070 3070 3068 3069 3071 3070 3070 3070 3072 3071 3071 3072 3067 3066 3067 3070 3068 3069 3069 3072 3071
3066 3065 3066 3067 3067 3068 3068 3068 3068 3069 3067 3065 3063 3060 3058 3066 3057 3058 3060 3062 3061 3062 3064 3064 3064 3063 3064 3065 3068 3065 3063 3064 3066 3066 3064 3069 3055 3059 3063 3064 3061 3060 3059 3059 3060
3055 3055 3056 3057 3059 3059 3059 3060 3059 3060 3059 3058 3056 3053 3050 3055 3053 3051 3054 3055 3057 3058 3060 3061 3061 3060 3061 3062 3063 3063 3059 3058 3061 3064 3064 3066 3044 3054 3056 3054 3052 3051 3050 3050 3049
3041 3044 3046 3047 3049 3050 3051 3050 3051 3051 3052 3051 3050 3048 3047 3047 3048 3047 3049 3050 3051 3053 3055 3056 3057 3058 3060 3058 3060 3060 3054 3053 3056 3060 3057 3057 3049 3046 3048 3048 3045 3044 3042 3042 3041
3029 3033 3036 3036 3039 3040 3042 3041 3041 3043 3044 3044 3043 3047 3045 3044 3044 3043 3045 3046 3047 3049 3051 3051 3053 3055 3054 3055 3054 3053 3052 3051 3051 3055 3054 3047 3045 3042 3044 3042 3039 3038 3038 3036 3035
3019 3023 3025 3026 3029 3030 3032 3033 3036 3036 3034 3038 3036 3039 3039 3040 3041 3042 3041 3041 3043 3046 3047 3048 3050 3048 3050 3052 3052 3051 3049 3049 3045 3048 3048 3045 3040 3033 3036 3034 3032 3030 3030 3028 3026
3009 3012 3013 3017 3019 3021 3023 3024 3027 3031 3029 3029 3030 3034 3035 3037 3037 3038 3038 3038 3036 3040 3043 3046 3044 3046 3047 3049 3048 3046 3047 3044 3040 3043 3044 3038 3029 3028 3027 3024 3024 3022 3020 3019 3016
2999 3002 3005 3007 3010 3012 3013 3017 3022 3026 3024 3023 3025 3027 3032 3032 3032 3033 3035 3033 3034 3035 3038 3040 3040 3041 3044 3044 3044 3045 3044 3042 3041 3040 3036 3034 3024 3020 3020 3019 3017 3016 3014 3009 3006
2990 2994 2997 3000 3003 3004 3008 3015 3019 3023 3022 3018 3018 3020 3023 3026 3028 3030 3030 3032 3032 3033 3038 3038 3037 3038 3039 3038 3040 3039 3042 3040 3039 3038 3029 3027 3022 3016 3014 3010 3007 3007 3002 3000 2997
2982 2984 2989 2991 2996 3000 3008 3011 3017 3021 3020 3015 3013 3016 3018 3023 3027 3027 3029 3029 3030 3032 3034 3032 3033 3034 3034 3034 3036 3036 3038 3036 3034 3032 3029 3015 3022 3005 3010 3003 2999 2995 2995 2992 2990
2975 2977 2981 2986 2990 2999 3004 3008 3013 3019 3012 3008 3010 3013 3015 3018 3023 3026 3027 3029 3030 3029 3028 3027 3029 3030 3030 3031 3032 3033 3032 3031 3029 3029 3024 3014 3015 3002 3003 3001 2997 2993 2989 2988 2985
2970 2973 2979 2983 2988 2995 3000 3004 3009 3011 3004 3005 3006 3010 3015 3018 3020 3023 3025 3027 3028 3027 3024 3023 3023 3025 3028 3026 3027 3029 3029 3029 3028 3024 3019 3013 3010 3005 3003 3001 2996 2992 2985 2982 2982
2967 2971 2976 2983 2986 2993 2997 3002 3002 3002 3001 3003 3003 3007 3012 3015 3017 3020 3022 3023 3023 3022 3021 3020 3020 3021 3023 3021 3019 3019 3024 3026 3024 3020 3012 3012 3005 3001 3000 2998 2993 2986 2982 2978 2978
2965 2971 2978 2983 2986 2991 2996 2997 2995 2997 3000 3001 3003 3005 3009 3010 3013 3016 3019 3021 3019 3016 3020 3017 3015 3017 3018 3017 3017 3017 3017 3020 3018 3016 3013 3006 3002 2999 3000 2995 2988 2984 2979 2976 2975
2967 2972 2977 2981 2984 2989 2993 2994 2994 2996 2998 3000 3001 3003 3005 3008 3010 3012 3016 3019 3017 3017 3018 3017 3013 3013 3014 3015 3016 3015 3018 3017 3016 3016 3009 2999 2998 2998 2996 2992 2988 2984 2976 2977 2974
2970 2974 2978 2980 2984 2988 2991 2992 2992 2995 2998 2999 2998 3001 3003 3005 3007 3011 3015 3016 3015 3015 3016 3015 3014 3010 3012 3015 3013 3012 3013 3014 3013 3010 3007 3003 2997 2997 2995 2991 2990 2984 2979 2975 2971
2970 2975 2978 2981 2986 2987 2989 2989 2991 2993 2995 2997 2998 3000 3001 3002 3005 3010 3012 3012 3012 3011 3012 3013 3012 3007 3006 3009 3012 3015 3013 3012 3011 3006 3003 2999 2992 2995 2993 2990 2988 2985 2982 2977 2971
2970 2973 2976 2979 2983 2985 2987 2988 2990 2991 2993 2995 2997 2998 2999 3001 3005 3007 3009 3011 3010 3011 3012 3012 3012 3008 3002 3005 3005 3006 3008 3010 3008 3003 2999 2998 2992 2993 2988 2986 2985 2983 2980 2976 2971
2970 2974 2977 2979 2981 2983 2986 2988 2990 2991 2993 2994 2995 2997 2999 3001 3002 3004 3006 3007 3008 3009 3009 3009 3009 3011 3012 3009 3007 3002 3003 3006 3007 3002 2998 2994 2989 2987 2984 2983 2982 2981 2980 2975 2971
2969 2971 2974 2977 2980 2982 2985 2987 2988 2990 2993 2995 2995 2996 2997 3000 3000 3001 3002 3003 3005 3007 3006 3006 3006 3006 3006 3004 3002 2998 2996 2997 2999 2997 2996 2990 2988 2983 2979 2980 2980 2977 2974 2972 2970
2968 2970 2972 2975 2979 2982 2984 2986 2988 2990 2993 2994 2995 2996 2997 2998 2998 2999 2999 3000 3000 3002 3003 3002 3002 3001 2997 2997 2995 2989 2986 2986 2988 2990 2989 2987 2984 2981 2977 2976 2977 2975 2972 2969 2967
2966 2968 2972 2974 2977 2981 2983 2985 2988 2990 2993 2993 2993 2994 2995 2997 2997 2995 2995 2994 2994 2994 2995 2996 2997 2998 2991 2992 2990 2984 2975 2976 2980 2985 2984 2982 2980 2977 2976 2976 2976 2974 2971 2969 2967